map of CMN home
Great Circle Mapper logo
CMN - Airport
Location
City:  Casablanca, Morocco
Name:Mohammed V International Airport
ICAO / IATA:GMMN / CMN

Details
Type:Airport (Aerodrome, Airfield)
Use:Public/Civil, International (customs port of entry)
Latitude:3322'03"N (33.367467)
Longitude:735'24"W (-7.589966)
Datum:WGS 1984
Elevation:656 ft (200 m)
Variation:2.09W (WMM2015 magnetic declination)
0.11 annual change
Runways:2
Longest:12205 × 148 ft (3720 × 45 m), paved

Time
Time Zone:UTC+0 (DST+1)
Local Time:

Weather
METAR:GMMN 060230Z 06010KT 7000 BKN007 22/21 Q1016 NOSIG
TAF:GMMN 052300Z 0600/0706 34006KT 6000 FEW010 SCT100 PROB30
TEMPO 0604/0607 3000 BR SCT008
BECMG 0610/0612 34008KT CAVOK
BECMG 0622/0624 04006KT 8000 FEW016

Related Locations
Nearby:
Farthest:KAT: 12304 mi / 19802 km
Kaitaia, NZ

Find:

   beyond  
but within

Other Information
Maps:
NOTAMs:
Links:
Sources:

  
flag of Morocco   

Sectional Chart

Flight Planning
at skyvector.com

Satellite Image

Google Maps Satellite view

 

Copyright © 2004-2015 Karl L. Swartz. All rights reserved.
The Great Circle Mapper name and logo are trademarks of the Great Circle Mapper.
All other trademarks mentioned herein belong to their respective owners.
Please see credits for attibutions and further copyright information.

  Follow gcmap on Facebook Follow gcmap on Twitter Follow gcmap on Google+

hCard Microformat

Geo Microformat